Flag for Germany Weather past 2 weeks in Lörrach, Baden-Württemberg, Germany

Now
34 °F

Light rain. Fog.


Feels Like: 34 °F
Forecast: 30 / 39 °F
Wind: 1 mph from North

Location: Bale-Mulhouse

Current Time: Jan 27, 2015 at 12:06:18 AM

Latest Report: Jan 26, 2015 at 11:30 PM


Visibility: 2 mi

Pressure: 30.18 "Hg

Humidity: 93%

Dew point: 32 °F

Location of LörrachLocation

Historic Weather in Lörrach — Graph

°F

Lörrach temperature yesterday

Maximum temperature yesterday: 34 °F (at 10:00 AM)
Minimum temperature yesterday: 32 °F (at 12:00 AM)
Average temperature yesterday: 33 °F

Past Weeks' High & Low Weather Summary

 TemperatureHumidityPressure
High61 °F (Jan 13, 3:00 PM)100% (Jan 16, 10:30 AM)30.48 "Hg (Jan 16, 10:30 AM)
Low27 °F (Jan 18, 4:30 AM)36% (Jan 13, 3:00 PM)29.71 "Hg (Jan 16, 2:30 PM)
Average37 °F86%30.03 "Hg
* Reported Jan 11 11:00 PM — Jan 26 11:00 PM, Lörrach, Weather by CustomWeather, © 2014

Note: Actual official high and low records may vary slightly from our data, if they occured in-between our weather recording intervals... More about our weather records

Advertising

Lörrach weather history for previous 24 hours

 ConditionsComfort  
Time TempWeatherWind HumidityBarometerVisibility
11:00 PM
Jan 26
32 °FIce fog.2 mph100%30.15 "Hg2 mi
10:30 PM32 °FDrizzle. Ice fog.No wind100%30.18 "Hg2 mi
10:00 PM32 °FIce fog.3 mph100%30.18 "Hg2 mi
9:30 PM32 °FDrizzle. Ice fog.2 mph100%30.18 "Hg1 mi
9:00 PM32 °FLight snow. Ice fog.2 mph100%30.18 "Hg1 mi
8:30 PM32 °FLight snow. Ice fog.2 mph100%30.18 "Hg1 mi
8:00 PM32 °FLight snow. Ice fog.3 mph100%30.18 "Hg1 mi
7:30 PM32 °FLight snow. Ice fog.3 mph100%30.21 "Hg1 mi
7:00 PM32 °FSnow. Ice fog.1 mph100%30.21 "Hg1 mi
6:30 PM32 °FLight snow. Ice fog.3 mph100%30.21 "Hg1 mi
6:00 PM32 °FSnow. Ice fog.3 mph100%30.21 "Hg1 mi
5:30 PM32 °FSnow. Ice fog.5 mph100%30.21 "Hg1 mi
5:00 PM32 °FSnow. Ice fog.3 mph100%30.21 "Hg1 mi
4:30 PM32 °FSnow. Ice fog.5 mph100%30.21 "Hg1 mi
4:00 PM34 °FSnow. Fog.5 mph93%30.24 "Hg1 mi
3:30 PM34 °FLight snow. Fog.5 mph93%30.24 "Hg1 mi
3:00 PM34 °FLight snow. Fog.5 mph93%30.24 "Hg2 mi
2:30 PM34 °FLight snow. Fog.6 mph93%30.24 "Hg3 mi
2:00 PM34 °FLight rain. Partly sunny.7 mph93%30.27 "Hg4 mi
1:30 PM34 °FLight rain. Partly sunny.6 mph93%30.27 "Hg4 mi
1:00 PM34 °FLight snow. Broken clouds.7 mph93%30.30 "Hg4 mi
12:30 PM34 °FLight snow. Broken clouds.6 mph93%30.30 "Hg4 mi
12:00 PM34 °FLight snow. Broken clouds.6 mph93%30.33 "Hg4 mi
11:30 AM34 °FLight snow. Partly sunny.6 mph93%30.33 "Hg4 mi
11:00 AM34 °FLight snow. Broken clouds.5 mph93%30.33 "Hg3 mi
10:30 AM34 °FLight snow. Fog.5 mph93%30.33 "Hg2 mi
10:00 AM34 °FLight snow. Fog.3 mph93%30.33 "Hg2 mi
9:30 AM32 °FLight snow. Ice fog.2 mph100%30.36 "Hg3 mi
9:00 AM32 °FLight snow. Partly sunny.2 mph93%30.36 "Hg3 mi
8:30 AM32 °FLight snow. Clear.2 mph93%30.36 "Hg3 mi
8:00 AM32 °FLight snow. Ice fog.3 mph93%30.36 "Hg3 mi
7:00 AM32 °FLight snow. Ice fog.3 mph93%30.36 "Hg2 mi
6:30 AM32 °FLight snow. Ice fog.1 mph93%30.36 "Hg1 mi
6:00 AM32 °FLight snow. Ice fog.No wind93%30.36 "Hg2 mi
5:30 AM32 °FLight snow. Ice fog.2 mph93%30.36 "Hg2 mi
5:00 AM32 °FLight snow. Ice fog.No wind93%30.36 "Hg3 mi
4:30 AM32 °FLight snow. Ice fog.No wind93%30.36 "Hg3 mi
4:00 AM32 °FClear.No wind93%30.36 "Hg4 mi
3:30 AM32 °FClear.1 mph93%30.36 "Hg4 mi
3:00 AM32 °FClear.1 mph93%30.36 "Hg4 mi
2:30 AM32 °FClear.2 mph93%30.36 "Hg5 mi
2:00 AM32 °FPartly cloudy.1 mph93%30.36 "Hg5 mi
1:30 AM32 °FOvercast.No wind93%30.39 "Hg5 mi
1:00 AM32 °FPassing clouds.1 mph93%30.39 "Hg5 mi
12:30 AM32 °FClear.1 mph93%30.39 "Hg6 mi
12:00 AM32 °FPartly cloudy.No wind93%30.39 "HgN/A
Weather by CustomWeather, © 2014

See weather overviewHow to use our weather pages